Location: Harwich
(41.6860°N, 70.0760°W)
Time: 11:56:40
(UTC-04:00)

ISS - Visible Passes

Search period start: 23 April 2019 00:00
Search period end: 03 May 2019 00:00
Orbit: 408 x 410 km, 51.6° (Epoch: 24 April)

Date Brightness Start Highest point End Pass type
(mag) Time Alt. Az. Time Alt. Az. Time Alt. Az.
27 Apr -1.2 04:52:36 10° S 04:54:43 16° SE 04:56:50 10° E visible
29 Apr -2.8 04:46:20 11° SSW 04:49:19 39° SE 04:52:26 10° ENE visible
30 Apr -1.9 03:57:34 19° SSE 03:58:35 22° SE 04:01:11 10° E visible
01 May -0.9 03:08:43 11° ESE 03:08:43 11° ESE 03:09:14 10° ESE visible
01 May -3.8 04:41:27 16° WSW 04:44:01 80° NW 04:47:20 10° NE visible
02 May -3.5 03:52:31 45° S 03:53:09 55° SE 03:56:24 10° ENE visible
